TimeEST,TemperatureF,Dew PointF,Humidity,Sea Level PressureIn,VisibilityMPH,Wind Direction,Wind SpeedMPH,Gust SpeedMPH,PrecipitationIn,Events,Conditions,WindDirDegrees,DateUTC
12:53 AM,48.9,48.0,97,30.00,6.0,West,8.1,-,N/A,,Overcast,270,2012-12-09 05:53:00
1:53 AM,48.9,48.0,97,30.01,5.0,West,6.9,-,N/A,,Overcast,280,2012-12-09 06:53:00
2:53 AM,48.9,48.0,97,30.04,4.0,West,10.4,-,N/A,,Overcast,280,2012-12-09 07:53:00
3:53 AM,48.9,48.0,97,30.06,4.0,West,9.2,-,N/A,,Overcast,280,2012-12-09 08:53:00
4:53 AM,48.0,46.9,96,30.08,5.0,WNW,8.1,-,N/A,,Overcast,300,2012-12-09 09:53:00
5:15 AM,46.4,46.4,100,30.08,5.0,NW,8.1,-,N/A,,Mostly Cloudy,310,2012-12-09 10:15:00
5:53 AM,46.9,46.9,100,30.11,5.0,WNW,4.6,-,N/A,,Overcast,290,2012-12-09 10:53:00
6:53 AM,45.0,45.0,100,30.14,5.0,NW,5.8,-,N/A,,Clear,310,2012-12-09 11:53:00
7:53 AM,46.9,43.0,86,30.17,10.0,NNW,8.1,-,N/A,,Scattered Clouds,330,2012-12-09 12:53:00
8:53 AM,46.9,41.0,80,30.22,10.0,North,5.8,-,N/A,,Mostly Cloudy,360,2012-12-09 13:53:00
9:53 AM,48.9,39.0,69,30.22,10.0,North,16.1,-,N/A,,Clear,10,2012-12-09 14:53:00
10:53 AM,50.0,37.9,63,30.22,10.0,NNE,12.7,18.4,N/A,,Clear,20,2012-12-09 15:53:00
11:53 AM,48.9,37.0,64,30.21,10.0,NE,11.5,19.6,N/A,,Clear,40,2012-12-09 16:53:00
12:53 PM,48.0,34.0,58,30.22,10.0,NNE,12.7,19.6,N/A,,Scattered Clouds,20,2012-12-09 17:53:00
1:53 PM,46.9,30.0,52,30.22,10.0,NNE,12.7,-,N/A,,Scattered Clouds,30,2012-12-09 18:53:00
2:53 PM,46.0,34.0,63,30.25,10.0,NE,8.1,-,N/A,,Overcast,40,2012-12-09 19:53:00
3:53 PM,44.1,36.0,73,30.26,10.0,NE,5.8,-,0.00,Rain,Light Rain,40,2012-12-09 20:53:00
4:53 PM,43.0,37.9,82,30.27,10.0,NNE,5.8,-,0.01,Rain,Light Rain,30,2012-12-09 21:53:00
5:53 PM,44.1,41.0,89,30.26,10.0,ENE,6.9,-,0.01,Rain,Light Rain,70,2012-12-09 22:53:00
6:53 PM,45.0,42.1,90,30.26,10.0,East,8.1,-,0.01,Rain,Light Rain,90,2012-12-09 23:53:00
7:53 PM,45.0,42.1,90,30.26,10.0,East,5.8,-,0.02,Rain,Light Rain,80,2012-12-10 00:53:00
8:53 PM,45.0,42.1,90,30.24,10.0,East,9.2,-,0.02,Rain,Light Rain,90,2012-12-10 01:53:00
9:53 PM,45.0,42.1,90,30.20,10.0,East,9.2,-,0.01,,Overcast,100,2012-12-10 02:53:00
10:53 PM,45.0,43.0,93,30.18,10.0,East,12.7,19.6,0.01,,Overcast,100,2012-12-10 03:53:00
11:46 PM,44.6,44.6,100,30.13,8.0,ESE,17.3,23.0,0.06,Rain,Light Rain,110,2012-12-10 04:46:00
11:53 PM,45.0,44.1,97,30.13,6.0,ESE,17.3,24.2,0.07,Rain,Rain,120,2012-12-10 04:53:00